Regional Weather Roundup
Issued by NWS Sioux Falls, SD

Home | Current Version | Previous Version | Graphics & Text | Print | Product List | Glossary Off
Versions: 1 2 3 4 5 6 7 8 9 10 11 12 13 14 15 16 17 18 19 20 21 22 23 24 25 26 27 28 29 30 31 32 33 34 35 36 37 38 39 40 41 42 43 44 45 46 47 48 49 50

000
ASUS43 KFSD 221810
RWRFSD

WEATHER ROUNDUP FOR SE SOUTH DAKOTA/SW MINNESOTA/NW IOWA
NATIONAL WEATHER SERVICE SIOUX FALLS SD
100 PM CDT TUE JUL 22 2014

NOTE: "FAIR" INDICATES FEW OR NO CLOUDS BELOW 12,000 FEET WITH NO
SIGNIFICANT WEATHER AND OR OBSTRUCTIONS TO VISIBILITY.


SDZ038>040-050-052>070-221900-
SOUTHEAST SOUTH DAKOTA

CITY           SKY/WX    TMP DP  RH WIND       PRES   REMARKS
CHAMBERLAIN    SUNNY     78  64  60 N8        30.16R
6HR MIN TEMP:  65; 6HR MAX TEMP:  79;

HURON          PTSUNNY   79  60  52 N17G25    30.13R
6HR MIN TEMP:  65; 6HR MAX TEMP:  79;

MADISON        FAIR      75  63  64 NE15G22   30.13F
MITCHELL       PTSUNNY   79  65  62 NE13G21   30.13R
6HR MIN TEMP:  68; 6HR MAX TEMP:  80;

SIOUX FALLS    PTSUNNY   78  65  63 N10       30.10F
6HR MIN TEMP:  68; 6HR MAX TEMP:  80; 6HR PCP: TRACE;

WINNER         FAIR      80  63  55 NE10      30.19R
YANKTON        MOSUNNY   81  66  61 N7        30.10R
$$

MNZ071-072-080-081-089-090-097-098-221900-
SOUTHWEST MINNESOTA

CITY           SKY/WX    TMP DP  RH WIND       PRES   REMARKS
FAIRMONT       PTSUNNY   79  63  57 NW13      30.07R
JACKSON        PTSUNNY   77  63  61 NW13G20   30.11R
LUVERNE        MOSUNNY   81  63  54 N12G18    30.09F
MARSHALL       MOSUNNY   77  61  57 N16G25    30.09R
6HR MIN TEMP:  66; 6HR MAX TEMP:  77;

MONTEVIDEO     MOSUNNY   79  61  53 NE18      30.09S
PIPESTONE      SUNNY     79  57  47 N14G20    30.13S
REDWOOD FALLS  SUNNY     79  64  60 N15G22    30.05S
TRACY          MOSUNNY   77  65  66 N12G22    30.11R
WINDOM         PTSUNNY   77  63  61 N14       30.10S
WORTHINGTON    PTSUNNY   75  64  69 N10G16    30.13R
$$

IAZ001>003-012>014-020>022-031-032-NEZ013-014-SDZ071-221900-
NORTHWEST IOWA

CITY           SKY/WX    TMP DP  RH WIND       PRES   REMARKS
CHEROKEE       PTSUNNY   82  68  63 N15       30.08R
DENISON        CLOUDY    82  72  69 N10       30.05R
ESTHERVILLE    SUNNY     79  65  62 N16       30.08R
LE MARS        MOSUNNY   82  68  61 NE14G24   30.05F
ORANGE CITY    MOSUNNY   81  64  57 NE7       30.08F
SHELDON        MOSUNNY   81  68  65 N8G17     30.09F
SIOUX CITY     MOSUNNY   83  67  58 NE12      30.06F
6HR MIN TEMP:  77; 6HR MAX TEMP:  84;

SPENCER        MOSUNNY   83  66  56 N14       30.09R
6HR MIN TEMP:  72; 6HR MAX TEMP:  83;

STORM LAKE     CLOUDY    79  68  69 N14G23    30.07R
$$

ABBREVIATIONS USED IN REMARKS
   TC - TEMPERATURE IN CELSIUS
  WCI - WIND CHILL INDEX
   HX - HEAT INDEX
  VSB - VISIBILITY



USA.gov is the U.S. government's official web portal to all federal, state and local government web resources and services.